User: anonymous   Login
Location: Clyde
(45.1830°S, 169.3170°E)
Time: 22:53:29
(UTC+13:00)
Language:

Cosmos 1486 Rocket - Orbit

View from above orbital plane
View from above orbital plane
View from above satellite
View from above satellite

Ground track
Ground track

The orbit data is extracted from the following two-line orbital elements,

1 14241U 83079B   19081.20265951  .00000027  00000-0  18136-4 0  9990
2 14241  74.0597 146.2240 0016220  58.0660 302.2068 14.36163385865113
Epoch (UTC): 22 March 2019 04:51:49
Eccentricity: 0.0016220
inclination: 74.0597°
perigee height: 759 km
apogee height: 783 km
right ascension of ascending node: 146.2240°
argument of perigee: 58.0660°
revolutions per day: 14.36163385
mean anomaly at epoch: 302.2068°
orbit number at epoch: 86511

The dashed part of the orbit path shows where the satellite is in the earth's shadow,  

DLR